STARLINK-32325, 61588

Orbit data source: Space-Track

STARLINK-32325, 61588 is a payload satellite owned by SpaceX/Seattle (US) in LEO that was launched on Fri, 18 Oct 2024 UTC via an FALCON 9 launch vehicle from the Air Force Eastern Test Range (AFETR). Payload-class satellites include a variety of spacecraft equipped with specific instruments for various scientific and technological missions. These include communications satellites like Starlink; space stations such as the ISS; scientific satellites like the Hubble; Earth observation satellites from companies like Planet Labs, Umbra, and HawkEye 360; GPS; miniature CubeSats for education and research; and military/defense satellites.

Loading next visibility...
Identifier
61588, 2024-187Q
Orbit
LEO
Country
Flag of USUS
Related business
Manufacturer
SpaceX/Seattle
Mission
Operational Commercial Communications
Bus & Motor
STARLINK V2M, Unknown motor
Mass
730 kg wet, ~700 kg dry
Launch date (UTC)
2024-10-18 (2 years ago)
Launch vehicle
FALCON 9
Launch site
Air Force Eastern Test Range (AFETR)
Object type
Payload
Rocket body
Debris
Shape & HBR
Box + 2 Pan, 17.7 m
Radar Cross Section
33.884 m², Large (>1 m²)

Expand to show TLE details & history
Last TLE update: 13 hours ago

TLE from 13 hours ago
0 STARLINK-32325
1 61588U 24187Q   26171.35932251 -.00005477  00000-0 -15086-3 0  9995
2 61588  53.1631 306.6741 0001154  99.9345 260.1788 15.34446511 94825
Epoch: 2026-06-20T08:37Z
TLE epoch observation values (Epoch: 2026-06-20T08:37:25.464Z)
Latitude
-0.00004°
Longitude
-91.25711°
Altitude
463.601 km
Speed
7.636 km/s
True Right ascension
20h 26m 41s
True Declination
0° 00' 00"
Sunlit
Object was in full shadow at epoch
Visualization orbit readout
Latitude
Unknown
Longitude
Unknown
Altitude
Unknown
Speed
Unknown
Apparent Right ascension
Unknown
Apparent Declination
Unknown
Sunlit
N/A
Visualization observer readout
Local Sidereal Time
08:33:36
Azimuth
Unknown
Elevation
Unknown
Doppler factor
Unknown
Orbital elements
Apogee altitude
463.611 km
Perigee altitude
462.032 km
Semi-major axis
6,840.958 km
Eccentricity
0.00012
Inclination
53.1631°
RAAN
306.6741°
Arg. of periapsis
99.9345°
True anomaly
260.16577°
Mean anomaly
260.1788°
Eccentric anomaly
260.17229°
Mean motion
3.8359 °/min
Orbital period
93.85 mins
BSTAR
-0.00015086
Loading maneuver chart data...
Computing Atmospheric mass density...
Loading historical data...
Loading historical data...
Loading historical data...
Loading historical data...
Loading historical data...
Loading historical data...
Loading historical data...

Documentation

Showing up to 5 results
|